Year,Month,Day,Hour,Minute,Value (Times are PST for temperature in C)
2015,04,18,00,00,9.80
2015,04,18,00,01,9.80
2015,04,18,00,02,9.80
2015,04,18,00,03,9.80
2015,04,18,00,04,9.70
2015,04,18,00,05,9.70
2015,04,18,00,06,9.70
2015,04,18,00,07,9.60
2015,04,18,00,08,9.60
2015,04,18,00,09,9.60
2015,04,18,00,10,9.50
2015,04,18,00,11,9.50
2015,04,18,00,12,9.50
2015,04,18,00,13,9.40
2015,04,18,00,14,9.40
2015,04,18,00,15,9.40
2015,04,18,00,16,9.30
2015,04,18,00,17,9.30
2015,04,18,00,18,9.30
2015,04,18,00,19,9.30
2015,04,18,00,20,9.20
2015,04,18,00,21,9.20
2015,04,18,00,22,9.20
2015,04,18,00,23,9.20
2015,04,18,00,24,9.10
2015,04,18,00,25,9.10
2015,04,18,00,26,9.10
2015,04,18,00,27,9.10
2015,04,18,00,28,9.00
2015,04,18,00,29,9.00
2015,04,18,00,30,9.00
2015,04,18,00,31,8.90
2015,04,18,00,32,8.80
2015,04,18,00,33,8.80
2015,04,18,00,34,8.80
2015,04,18,00,35,8.80
2015,04,18,00,36,8.80
2015,04,18,00,37,8.80
2015,04,18,00,38,8.80
2015,04,18,00,39,8.80
2015,04,18,00,40,8.70
2015,04,18,00,41,8.70
2015,04,18,00,42,8.70
2015,04,18,00,43,8.70
2015,04,18,00,44,8.70
2015,04,18,00,45,8.60
2015,04,18,00,46,8.70
2015,04,18,00,47,8.60
2015,04,18,00,48,8.60
2015,04,18,00,49,8.70
2015,04,18,00,50,8.70
2015,04,18,00,51,8.70
2015,04,18,00,52,8.60
2015,04,18,00,53,8.60
2015,04,18,00,54,8.60
2015,04,18,00,55,8.60
2015,04,18,00,56,8.60
2015,04,18,00,57,8.60
2015,04,18,00,58,8.60
2015,04,18,00,59,8.60
2015,04,18,01,00,8.50
2015,04,18,01,01,8.50
2015,04,18,01,02,8.50
2015,04,18,01,03,8.50
2015,04,18,01,04,8.50
2015,04,18,01,05,8.50
2015,04,18,01,06,8.40
2015,04,18,01,07,8.40
2015,04,18,01,08,8.40
2015,04,18,01,09,8.40
2015,04,18,01,10,8.40
2015,04,18,01,11,8.40
2015,04,18,01,12,8.40
2015,04,18,01,13,8.40
2015,04,18,01,14,8.40
2015,04,18,01,15,8.40
2015,04,18,01,16,8.30
2015,04,18,01,17,8.30
2015,04,18,01,18,8.30
2015,04,18,01,19,8.30
2015,04,18,01,20,8.30
2015,04,18,01,21,8.30
2015,04,18,01,22,8.30
2015,04,18,01,23,8.20
2015,04,18,01,24,8.20
2015,04,18,01,25,8.20
2015,04,18,01,26,8.20
2015,04,18,01,27,8.20
2015,04,18,01,28,8.20
2015,04,18,01,29,8.20
2015,04,18,01,30,8.20
2015,04,18,01,31,8.20
2015,04,18,01,32,8.20
2015,04,18,01,33,8.10
2015,04,18,01,34,8.10
2015,04,18,01,35,8.10
2015,04,18,01,36,8.10
2015,04,18,01,37,8.10
2015,04,18,01,38,8.00
2015,04,18,01,39,8.00
2015,04,18,01,40,8.00
2015,04,18,01,41,8.00
2015,04,18,01,42,8.00
2015,04,18,01,43,7.90
2015,04,18,01,44,7.90
2015,04,18,01,45,7.90
2015,04,18,01,46,7.90
2015,04,18,01,47,7.90
2015,04,18,01,48,7.90
2015,04,18,01,49,7.90
2015,04,18,01,50,7.90
2015,04,18,01,51,7.90
2015,04,18,01,52,7.90
2015,04,18,01,53,7.90
2015,04,18,01,54,8.00
2015,04,18,01,55,8.00
2015,04,18,01,56,8.00
2015,04,18,01,57,8.10
2015,04,18,01,58,8.10
2015,04,18,01,59,8.20
2015,04,18,02,00,8.20
2015,04,18,02,01,8.30
2015,04,18,02,02,8.30
2015,04,18,02,03,8.30
2015,04,18,02,04,8.40
2015,04,18,02,05,8.50
2015,04,18,02,06,8.50
2015,04,18,02,07,8.50
2015,04,18,02,08,8.50
2015,04,18,02,09,8.60
2015,04,18,02,10,8.60
2015,04,18,02,11,8.60
2015,04,18,02,12,8.60
2015,04,18,02,13,8.60
2015,04,18,02,14,8.60
2015,04,18,02,15,8.60
2015,04,18,02,16,8.60
2015,04,18,02,17,8.60
2015,04,18,02,18,8.60
2015,04,18,02,19,8.60
2015,04,18,02,20,8.60
2015,04,18,02,21,8.60
2015,04,18,02,22,8.60
2015,04,18,02,23,8.60
2015,04,18,02,24,8.60
2015,04,18,02,25,8.60
2015,04,18,02,26,8.70
2015,04,18,02,27,8.70
2015,04,18,02,28,8.60
2015,04,18,02,29,8.60
2015,04,18,02,30,8.60
2015,04,18,02,31,8.60
2015,04,18,02,32,8.60
2015,04,18,02,33,8.60
2015,04,18,02,34,8.70
2015,04,18,02,35,8.70
2015,04,18,02,36,8.70
2015,04,18,02,37,8.80
2015,04,18,02,38,8.80
2015,04,18,02,39,8.80
2015,04,18,02,40,8.90
2015,04,18,02,41,8.90
2015,04,18,02,42,9.00
2015,04,18,02,43,9.00
2015,04,18,02,44,9.00
2015,04,18,02,45,9.10
2015,04,18,02,46,9.10
2015,04,18,02,47,9.10
2015,04,18,02,48,9.10
2015,04,18,02,49,9.10
2015,04,18,02,50,9.10
2015,04,18,02,51,9.10
2015,04,18,02,52,9.00
2015,04,18,02,53,9.00
2015,04,18,02,54,8.90
2015,04,18,02,55,8.80
2015,04,18,02,56,8.80
2015,04,18,02,57,8.80
2015,04,18,02,58,8.70
2015,04,18,02,59,8.70
2015,04,18,03,00,8.70
2015,04,18,03,01,8.70
2015,04,18,03,02,8.70
2015,04,18,03,03,8.60
2015,04,18,03,04,8.60
2015,04,18,03,05,8.60
2015,04,18,03,06,8.60
2015,04,18,03,07,8.60
2015,04,18,03,08,8.60
2015,04,18,03,09,8.60
2015,04,18,03,10,8.60
2015,04,18,03,11,8.60
2015,04,18,03,12,8.60
2015,04,18,03,13,8.60
2015,04,18,03,14,8.50
2015,04,18,03,15,8.50
2015,04,18,03,16,8.50
2015,04,18,03,17,8.50
2015,04,18,03,18,8.40
2015,04,18,03,19,8.40
2015,04,18,03,20,8.40
2015,04,18,03,21,8.40
2015,04,18,03,22,8.40
2015,04,18,03,23,8.40
2015,04,18,03,24,8.40
2015,04,18,03,25,8.40
2015,04,18,03,26,8.40
2015,04,18,03,27,8.40
2015,04,18,03,28,8.40
2015,04,18,03,29,8.30
2015,04,18,03,30,8.30
2015,04,18,03,31,8.30
2015,04,18,03,32,8.30
2015,04,18,03,33,8.30
2015,04,18,03,34,8.30
2015,04,18,03,35,8.20
2015,04,18,03,36,8.20
2015,04,18,03,37,8.20
2015,04,18,03,38,8.20
2015,04,18,03,39,8.20
2015,04,18,03,40,8.10
2015,04,18,03,41,8.10
2015,04,18,03,42,8.10
2015,04,18,03,43,8.00
2015,04,18,03,44,8.00
2015,04,18,03,45,8.00
2015,04,18,03,46,7.90
2015,04,18,03,47,7.90
2015,04,18,03,48,7.90
2015,04,18,03,49,7.90
2015,04,18,03,50,7.90
2015,04,18,03,51,7.80
2015,04,18,03,52,7.80
2015,04,18,03,53,7.80
2015,04,18,03,54,7.80
2015,04,18,03,55,7.70
2015,04,18,03,56,7.70
2015,04,18,03,57,7.70
2015,04,18,03,58,7.70
2015,04,18,03,59,7.70
2015,04,18,04,00,7.60
2015,04,18,04,01,7.60
2015,04,18,04,02,7.60
2015,04,18,04,03,7.60
2015,04,18,04,04,7.60
2015,04,18,04,05,7.50
2015,04,18,04,06,7.50
2015,04,18,04,07,7.50
2015,04,18,04,08,7.50
2015,04,18,04,09,7.50
2015,04,18,04,10,7.40
2015,04,18,04,11,7.40
2015,04,18,04,12,7.40
2015,04,18,04,13,7.40
2015,04,18,04,14,7.40
2015,04,18,04,15,7.30
2015,04,18,04,16,7.30
2015,04,18,04,17,7.30
2015,04,18,04,18,7.30
2015,04,18,04,19,7.20
2015,04,18,04,20,7.20
2015,04,18,04,21,7.20
2015,04,18,04,22,7.20
2015,04,18,04,23,7.20
2015,04,18,04,24,7.10
2015,04,18,04,25,7.10
2015,04,18,04,26,7.10
2015,04,18,04,27,7.10
2015,04,18,04,28,7.10
2015,04,18,04,29,7.10
2015,04,18,04,30,7.10
2015,04,18,04,31,7.10
2015,04,18,04,32,7.10
2015,04,18,04,33,7.10
2015,04,18,04,34,7.10
2015,04,18,04,35,7.10
2015,04,18,04,36,7.10
2015,04,18,04,37,7.10
2015,04,18,04,38,7.10
2015,04,18,04,39,7.10
2015,04,18,04,40,7.00
2015,04,18,04,41,7.00
2015,04,18,04,42,7.00
2015,04,18,04,43,7.00
2015,04,18,04,44,7.00
2015,04,18,04,45,7.00
2015,04,18,04,46,7.00
2015,04,18,04,47,7.00
2015,04,18,04,48,7.00
2015,04,18,04,49,7.00
2015,04,18,04,50,7.00
2015,04,18,04,51,7.00
2015,04,18,04,52,7.00
2015,04,18,04,53,7.00
2015,04,18,04,54,6.90
2015,04,18,04,55,6.90
2015,04,18,04,56,6.90
2015,04,18,04,57,6.90
2015,04,18,04,58,6.90
2015,04,18,04,59,6.90
2015,04,18,05,00,6.90
2015,04,18,05,01,6.90
2015,04,18,05,02,6.90
2015,04,18,05,03,6.90
2015,04,18,05,04,6.90
2015,04,18,05,05,6.90
2015,04,18,05,06,6.80
2015,04,18,05,07,6.80
2015,04,18,05,08,6.80
2015,04,18,05,09,6.80
2015,04,18,05,10,6.80
2015,04,18,05,11,6.80
2015,04,18,05,12,6.80
2015,04,18,05,13,6.80
2015,04,18,05,14,6.80
2015,04,18,05,15,6.80
2015,04,18,05,16,6.80
2015,04,18,05,17,6.80
2015,04,18,05,18,6.70
2015,04,18,05,19,6.70
2015,04,18,05,20,6.70
2015,04,18,05,21,6.70
2015,04,18,05,22,6.70
2015,04,18,05,23,6.60
2015,04,18,05,24,6.60
2015,04,18,05,25,6.60
2015,04,18,05,26,6.60
2015,04,18,05,27,6.60
2015,04,18,05,28,6.60
2015,04,18,05,29,6.50
2015,04,18,05,30,6.50
2015,04,18,05,31,6.50
2015,04,18,05,32,6.50
2015,04,18,05,33,6.50
2015,04,18,05,34,6.50
2015,04,18,05,35,6.50
2015,04,18,05,36,6.50
2015,04,18,05,37,6.50
2015,04,18,05,38,6.50
2015,04,18,05,39,6.50
2015,04,18,05,40,6.50
2015,04,18,05,41,6.50
2015,04,18,05,42,6.50
2015,04,18,05,43,6.50
2015,04,18,05,44,6.40
2015,04,18,05,45,6.40
2015,04,18,05,46,6.40
2015,04,18,05,47,6.40
2015,04,18,05,48,6.40
2015,04,18,05,49,6.40
2015,04,18,05,50,6.30
2015,04,18,05,51,6.30
2015,04,18,05,52,6.30
2015,04,18,05,53,6.30
2015,04,18,05,54,6.30
2015,04,18,05,55,6.30
2015,04,18,05,56,6.30
2015,04,18,05,57,6.30
2015,04,18,05,58,6.30
2015,04,18,05,59,6.30
2015,04,18,06,00,6.30
2015,04,18,06,01,6.30
2015,04,18,06,02,6.30
2015,04,18,06,03,6.30
2015,04,18,06,04,6.30
2015,04,18,06,05,6.30
2015,04,18,06,06,6.30
2015,04,18,06,07,6.20
2015,04,18,06,08,6.20
2015,04,18,06,09,6.20
2015,04,18,06,10,6.20
2015,04,18,06,11,6.20
2015,04,18,06,12,6.20
2015,04,18,06,13,6.20
2015,04,18,06,14,6.20
2015,04,18,06,15,6.20
2015,04,18,06,16,6.20
2015,04,18,06,17,6.10
2015,04,18,06,18,6.10
2015,04,18,06,19,6.10
2015,04,18,06,20,6.10
2015,04,18,06,21,6.10
2015,04,18,06,22,6.10
2015,04,18,06,23,6.10
2015,04,18,06,24,6.10
2015,04,18,06,25,6.10
2015,04,18,06,26,6.10
2015,04,18,06,27,6.10
2015,04,18,06,28,6.10
2015,04,18,06,29,6.20
2015,04,18,06,30,6.10
2015,04,18,06,31,6.10
2015,04,18,06,32,6.10
2015,04,18,06,33,6.20
2015,04,18,06,34,6.10
2015,04,18,06,35,6.20
2015,04,18,06,36,6.20
2015,04,18,06,37,6.20
2015,04,18,06,38,6.20
2015,04,18,06,39,6.20
2015,04,18,06,40,6.20
2015,04,18,06,41,6.20
2015,04,18,06,42,6.20
2015,04,18,06,43,6.20
2015,04,18,06,44,6.20
2015,04,18,06,45,6.20
2015,04,18,06,46,6.30
2015,04,18,06,47,6.30
2015,04,18,06,48,6.40
2015,04,18,06,49,6.40
2015,04,18,06,50,6.50
2015,04,18,06,51,6.60
2015,04,18,06,52,6.60
2015,04,18,06,53,6.70
2015,04,18,06,54,6.80
2015,04,18,06,55,6.90
2015,04,18,06,56,6.90
2015,04,18,06,57,7.00
2015,04,18,06,58,7.00
2015,04,18,06,59,7.10
2015,04,18,07,00,7.10
2015,04,18,07,01,7.20
2015,04,18,07,02,7.20
2015,04,18,07,03,7.20
2015,04,18,07,04,7.30
2015,04,18,07,05,7.40
2015,04,18,07,06,7.50
2015,04,18,07,07,7.60
2015,04,18,07,08,7.70
2015,04,18,07,09,7.70
2015,04,18,07,10,7.80
2015,04,18,07,11,7.80
2015,04,18,07,12,7.90
2015,04,18,07,13,8.00
2015,04,18,07,14,8.00
2015,04,18,07,15,8.10
2015,04,18,07,16,8.10
2015,04,18,07,17,8.10
2015,04,18,07,18,8.10
2015,04,18,07,19,8.10
2015,04,18,07,20,8.10
2015,04,18,07,21,8.10
2015,04,18,07,22,8.20
2015,04,18,07,23,8.20
2015,04,18,07,24,8.30
2015,04,18,07,25,8.30
2015,04,18,07,26,8.40
2015,04,18,07,27,8.40
2015,04,18,07,28,8.50
2015,04,18,07,29,8.60
2015,04,18,07,30,8.60
2015,04,18,07,31,8.60
2015,04,18,07,32,8.70
2015,04,18,07,33,8.70
2015,04,18,07,34,8.70
2015,04,18,07,35,8.80
2015,04,18,07,36,8.80
2015,04,18,07,37,8.80
2015,04,18,07,38,8.70
2015,04,18,07,39,8.70
2015,04,18,07,40,8.80
2015,04,18,07,41,8.80
2015,04,18,07,42,8.80
2015,04,18,07,43,8.80
2015,04,18,07,44,8.80
2015,04,18,07,45,8.90
2015,04,18,07,46,8.90
2015,04,18,07,47,9.00
2015,04,18,07,48,9.10
2015,04,18,07,49,9.20
2015,04,18,07,50,9.20
2015,04,18,07,51,9.30
2015,04,18,07,52,9.30
2015,04,18,07,53,9.40
2015,04,18,07,54,9.50
2015,04,18,07,55,9.50
2015,04,18,07,56,9.60
2015,04,18,07,57,9.70
2015,04,18,07,58,9.80
2015,04,18,07,59,9.90
2015,04,18,08,00,10.00
2015,04,18,08,01,10.20
2015,04,18,08,02,10.30
2015,04,18,08,03,10.50
2015,04,18,08,04,10.60
2015,04,18,08,05,10.70
2015,04,18,08,06,10.90
2015,04,18,08,07,11.00
2015,04,18,08,08,11.20
2015,04,18,08,09,11.30
2015,04,18,08,10,11.40
2015,04,18,08,11,11.50
2015,04,18,08,12,11.50
2015,04,18,08,13,11.40
2015,04,18,08,14,11.40
2015,04,18,08,15,11.30
2015,04,18,08,16,11.30
2015,04,18,08,17,11.20
2015,04,18,08,18,11.20
2015,04,18,08,19,11.20
2015,04,18,08,20,11.20
2015,04,18,08,21,11.20
2015,04,18,08,22,11.20
2015,04,18,08,23,11.20
2015,04,18,08,24,11.20
2015,04,18,08,25,11.20
2015,04,18,08,26,11.20
2015,04,18,08,27,11.20
2015,04,18,08,28,11.20
2015,04,18,08,29,11.20
2015,04,18,08,30,11.20
2015,04,18,08,31,11.20
2015,04,18,08,32,11.30
2015,04,18,08,33,11.30
2015,04,18,08,34,11.30
2015,04,18,08,35,11.30
2015,04,18,08,36,11.30
2015,04,18,08,37,11.30
2015,04,18,08,38,11.30
2015,04,18,08,39,11.30
2015,04,18,08,40,11.30
2015,04,18,08,41,11.40
2015,04,18,08,42,11.40
2015,04,18,08,43,11.40
2015,04,18,08,44,11.40
2015,04,18,08,45,11.50
2015,04,18,08,46,11.50
2015,04,18,08,47,11.50
2015,04,18,08,48,11.50
2015,04,18,08,49,11.60
2015,04,18,08,50,11.60
2015,04,18,08,51,11.70
2015,04,18,08,52,11.70
2015,04,18,08,53,11.70
2015,04,18,08,54,11.80
2015,04,18,08,55,11.80
2015,04,18,08,56,11.80
2015,04,18,08,57,11.90
2015,04,18,08,58,11.90
2015,04,18,08,59,11.90
2015,04,18,09,00,11.90
2015,04,18,09,01,11.90
2015,04,18,09,02,11.90
2015,04,18,09,03,11.90
2015,04,18,09,04,11.90
2015,04,18,09,05,11.90
2015,04,18,09,06,11.90
2015,04,18,09,07,11.90
2015,04,18,09,08,11.80
2015,04,18,09,09,11.80
2015,04,18,09,10,11.70
2015,04,18,09,11,11.70
2015,04,18,09,12,11.70
2015,04,18,09,13,11.70
2015,04,18,09,14,11.70
2015,04,18,09,15,11.70
2015,04,18,09,16,11.70
2015,04,18,09,17,11.70
2015,04,18,09,18,11.70
2015,04,18,09,19,11.70
2015,04,18,09,20,11.70
2015,04,18,09,21,11.70
2015,04,18,09,22,11.80
2015,04,18,09,23,11.80
2015,04,18,09,24,11.80
2015,04,18,09,25,11.80
2015,04,18,09,26,11.80
2015,04,18,09,27,11.90
2015,04,18,09,28,11.90
2015,04,18,09,29,11.80
2015,04,18,09,30,11.80
2015,04,18,09,31,11.80
2015,04,18,09,32,11.80
2015,04,18,09,33,11.80
2015,04,18,09,34,11.90
2015,04,18,09,35,11.90
2015,04,18,09,36,11.90
2015,04,18,09,37,11.90
2015,04,18,09,38,11.90
2015,04,18,09,39,11.90
2015,04,18,09,40,11.90
2015,04,18,09,41,11.90
2015,04,18,09,42,11.90
2015,04,18,09,43,11.80
2015,04,18,09,44,11.80
2015,04,18,09,45,11.80
2015,04,18,09,46,11.80
2015,04,18,09,47,11.90
2015,04,18,09,48,11.90
2015,04,18,09,49,11.90
2015,04,18,09,50,11.90
2015,04,18,09,51,11.90
2015,04,18,09,52,11.90
2015,04,18,09,53,12.00
2015,04,18,09,54,12.00
2015,04,18,09,55,12.00
2015,04,18,09,56,12.00
2015,04,18,09,57,12.00
2015,04,18,09,58,12.00
2015,04,18,09,59,12.00
2015,04,18,10,00,12.00
2015,04,18,10,01,11.90
2015,04,18,10,02,11.90
2015,04,18,10,03,11.90
2015,04,18,10,04,11.90
2015,04,18,10,05,11.90
2015,04,18,10,06,11.90
2015,04,18,10,07,11.90
2015,04,18,10,08,11.90
2015,04,18,10,09,11.90
2015,04,18,10,10,11.90
2015,04,18,10,11,11.90
2015,04,18,10,12,11.90
2015,04,18,10,13,11.90
2015,04,18,10,14,11.90
2015,04,18,10,15,12.00
2015,04,18,10,16,12.00
2015,04,18,10,17,12.00
2015,04,18,10,18,12.00
2015,04,18,10,19,12.00
2015,04,18,10,20,12.00
2015,04,18,10,21,12.00
2015,04,18,10,22,12.00
2015,04,18,10,23,12.00
2015,04,18,10,24,12.00
2015,04,18,10,25,12.00
2015,04,18,10,26,12.00
2015,04,18,10,27,12.00
2015,04,18,10,28,12.10
2015,04,18,10,29,12.10
2015,04,18,10,30,12.10
2015,04,18,10,31,12.10
2015,04,18,10,32,12.10
2015,04,18,10,33,12.10
2015,04,18,10,34,12.00
2015,04,18,10,35,12.10
2015,04,18,10,36,12.10
2015,04,18,10,37,12.10
2015,04,18,10,38,12.10
2015,04,18,10,39,12.10
2015,04,18,10,40,12.10
2015,04,18,10,41,12.10
2015,04,18,10,42,12.10
2015,04,18,10,43,12.20
2015,04,18,10,44,12.20
2015,04,18,10,45,12.20
2015,04,18,10,46,12.20
2015,04,18,10,47,12.20
2015,04,18,10,48,12.20
2015,04,18,10,49,12.30
2015,04,18,10,50,12.30
2015,04,18,10,51,12.30
2015,04,18,10,52,12.30
2015,04,18,10,53,12.30
2015,04,18,10,54,12.30
2015,04,18,10,55,12.30
2015,04,18,10,56,12.30
2015,04,18,10,57,12.30
2015,04,18,10,58,12.30
2015,04,18,10,59,12.30
2015,04,18,11,00,12.40
2015,04,18,11,01,12.40
2015,04,18,11,02,12.40
2015,04,18,11,03,12.40
2015,04,18,11,04,12.40
2015,04,18,11,05,12.40
2015,04,18,11,06,12.50
2015,04,18,11,07,12.50
2015,04,18,11,08,12.50
2015,04,18,11,09,12.60
2015,04,18,11,10,12.60
2015,04,18,11,11,12.60
2015,04,18,11,12,12.60
2015,04,18,11,13,12.60
2015,04,18,11,14,12.60
2015,04,18,11,15,12.60
2015,04,18,11,16,12.60
2015,04,18,11,17,12.60
2015,04,18,11,18,12.60
2015,04,18,11,19,12.60
2015,04,18,11,20,12.70
2015,04,18,11,21,12.70
2015,04,18,11,22,12.60
2015,04,18,11,23,12.50
2015,04,18,11,24,12.50
2015,04,18,11,25,12.50
2015,04,18,11,26,12.50
2015,04,18,11,27,12.50
2015,04,18,11,28,12.50
2015,04,18,11,29,12.50
2015,04,18,11,30,12.50
2015,04,18,11,31,12.60
2015,04,18,11,32,12.60
2015,04,18,11,33,12.60
2015,04,18,11,34,12.60
2015,04,18,11,35,12.70
2015,04,18,11,36,12.70
2015,04,18,11,37,12.70
2015,04,18,11,38,12.70
2015,04,18,11,39,12.70
2015,04,18,11,40,12.70
2015,04,18,11,41,12.70
2015,04,18,11,42,12.70
2015,04,18,11,43,12.70
2015,04,18,11,44,12.70
2015,04,18,11,45,12.60
2015,04,18,11,46,12.60
2015,04,18,11,47,12.60
2015,04,18,11,48,12.60
2015,04,18,11,49,12.60
2015,04,18,11,50,12.60
2015,04,18,11,51,12.60
2015,04,18,11,52,12.60
2015,04,18,11,53,12.60
2015,04,18,11,54,12.60
2015,04,18,11,55,12.60
2015,04,18,11,56,12.60
2015,04,18,11,57,12.60
2015,04,18,11,58,12.60
2015,04,18,11,59,12.60
2015,04,18,12,00,12.60
2015,04,18,12,01,12.60
2015,04,18,12,02,12.60
2015,04,18,12,03,12.60
2015,04,18,12,04,12.60
2015,04,18,12,05,12.70
2015,04,18,12,06,12.70
2015,04,18,12,07,12.70
2015,04,18,12,08,12.70
2015,04,18,12,09,12.70
2015,04,18,12,10,12.70
2015,04,18,12,11,12.70
2015,04,18,12,12,12.70
2015,04,18,12,13,12.70
2015,04,18,12,14,12.70
2015,04,18,12,15,12.70
2015,04,18,12,16,12.70
2015,04,18,12,17,12.70
2015,04,18,12,18,12.70
2015,04,18,12,19,12.80
2015,04,18,12,20,12.80
2015,04,18,12,21,12.80
2015,04,18,12,22,12.80
2015,04,18,12,23,12.80
2015,04,18,12,24,12.80
2015,04,18,12,25,12.80
2015,04,18,12,26,12.80
2015,04,18,12,27,12.80
2015,04,18,12,28,12.80
2015,04,18,12,29,12.80
2015,04,18,12,30,12.80
2015,04,18,12,31,12.80
2015,04,18,12,32,12.80
2015,04,18,12,33,12.80
2015,04,18,12,34,12.80
2015,04,18,12,35,12.80
2015,04,18,12,36,12.80
2015,04,18,12,37,12.80
2015,04,18,12,38,12.80
2015,04,18,12,39,12.80
2015,04,18,12,40,12.80
2015,04,18,12,41,12.80
2015,04,18,12,42,12.80
2015,04,18,12,43,12.80
2015,04,18,12,44,12.80
2015,04,18,12,45,12.80
2015,04,18,12,46,12.80
2015,04,18,12,47,12.80
2015,04,18,12,48,12.80
2015,04,18,12,49,12.90
2015,04,18,12,50,12.90
2015,04,18,12,51,12.90
2015,04,18,12,52,12.90
2015,04,18,12,53,13.00
2015,04,18,12,54,13.00
2015,04,18,12,55,13.00
2015,04,18,12,56,13.00
2015,04,18,12,57,13.10
2015,04,18,12,58,13.10
2015,04,18,12,59,13.10
2015,04,18,13,00,13.10
2015,04,18,13,01,13.20
2015,04,18,13,02,13.20
2015,04,18,13,03,13.20
2015,04,18,13,04,13.20
2015,04,18,13,05,13.20
2015,04,18,13,06,13.20
2015,04,18,13,07,13.20
2015,04,18,13,08,13.20
2015,04,18,13,09,13.20
2015,04,18,13,10,13.20
2015,04,18,13,11,13.20
2015,04,18,13,12,13.20
2015,04,18,13,13,13.30
2015,04,18,13,14,13.30
2015,04,18,13,15,13.30
2015,04,18,13,16,13.30
2015,04,18,13,17,13.30
2015,04,18,13,18,13.30
2015,04,18,13,19,13.30
2015,04,18,13,20,13.30
2015,04,18,13,21,13.30
2015,04,18,13,22,13.30
2015,04,18,13,23,13.30
2015,04,18,13,24,13.30
2015,04,18,13,25,13.40
2015,04,18,13,26,13.40
2015,04,18,13,27,13.40
2015,04,18,13,28,13.40
2015,04,18,13,29,13.40
2015,04,18,13,30,13.40
2015,04,18,13,31,13.40
2015,04,18,13,32,13.40
2015,04,18,13,33,13.40
2015,04,18,13,34,13.40
2015,04,18,13,35,13.40
2015,04,18,13,36,13.50
2015,04,18,13,37,13.50
2015,04,18,13,38,13.50
2015,04,18,13,39,13.50
2015,04,18,13,40,13.50
2015,04,18,13,41,13.50
2015,04,18,13,42,13.50
2015,04,18,13,43,13.50
2015,04,18,13,44,13.60
2015,04,18,13,45,13.60
2015,04,18,13,46,13.60
2015,04,18,13,47,13.60
2015,04,18,13,48,13.60
2015,04,18,13,49,13.60
2015,04,18,13,50,13.60
2015,04,18,13,51,13.70
2015,04,18,13,52,13.70
2015,04,18,13,53,13.70
2015,04,18,13,54,13.70
2015,04,18,13,55,13.70
2015,04,18,13,56,13.80
2015,04,18,13,57,13.80
2015,04,18,13,58,13.80
2015,04,18,13,59,13.80
2015,04,18,14,00,13.80
2015,04,18,14,01,13.80
2015,04,18,14,02,13.80
2015,04,18,14,03,13.80
2015,04,18,14,04,13.80
2015,04,18,14,05,13.80
2015,04,18,14,06,13.80
2015,04,18,14,07,13.80
2015,04,18,14,08,13.80
2015,04,18,14,09,13.80
2015,04,18,14,10,13.90
2015,04,18,14,11,13.90
2015,04,18,14,12,13.90
2015,04,18,14,13,13.90
2015,04,18,14,14,13.90
2015,04,18,14,15,13.90
2015,04,18,14,16,13.90
2015,04,18,14,17,13.90
2015,04,18,14,18,13.90
2015,04,18,14,19,14.00
2015,04,18,14,20,14.00
2015,04,18,14,21,14.00
2015,04,18,14,22,14.00
2015,04,18,14,23,14.00
2015,04,18,14,24,14.10
2015,04,18,14,25,14.10
2015,04,18,14,26,14.10
2015,04,18,14,27,14.10
2015,04,18,14,28,14.10
2015,04,18,14,29,14.10
2015,04,18,14,30,14.10
2015,04,18,14,31,14.20
2015,04,18,14,32,14.20
2015,04,18,14,33,14.20
2015,04,18,14,34,14.20
2015,04,18,14,35,14.20
2015,04,18,14,36,14.20
2015,04,18,14,37,14.20
2015,04,18,14,38,14.20
2015,04,18,14,39,14.20
2015,04,18,14,40,14.20
2015,04,18,14,41,14.20
2015,04,18,14,42,14.20
2015,04,18,14,43,14.30
2015,04,18,14,44,14.30
2015,04,18,14,45,14.30
2015,04,18,14,46,14.40
2015,04,18,14,47,14.40
2015,04,18,14,48,14.40
2015,04,18,14,49,14.40
2015,04,18,14,50,14.50
2015,04,18,14,51,14.40
2015,04,18,14,52,14.40
2015,04,18,14,53,14.40
2015,04,18,14,54,14.40
2015,04,18,14,55,14.50
2015,04,18,14,56,14.50
2015,04,18,14,57,14.50
2015,04,18,14,58,14.50
2015,04,18,14,59,14.60
2015,04,18,15,00,14.60
2015,04,18,15,01,14.60
2015,04,18,15,02,14.70
2015,04,18,15,03,14.70
2015,04,18,15,04,14.70
2015,04,18,15,05,14.80
2015,04,18,15,06,14.80
2015,04,18,15,07,14.80
2015,04,18,15,08,14.80
2015,04,18,15,09,14.80
2015,04,18,15,10,14.80
2015,04,18,15,11,14.80
2015,04,18,15,12,14.80
2015,04,18,15,13,14.90
2015,04,18,15,14,14.90
2015,04,18,15,15,14.90
2015,04,18,15,16,14.90
2015,04,18,15,17,14.90
2015,04,18,15,18,14.90
2015,04,18,15,19,15.00
2015,04,18,15,20,15.00
2015,04,18,15,21,15.00
2015,04,18,15,22,15.00
2015,04,18,15,23,15.00
2015,04,18,15,24,15.00
2015,04,18,15,25,15.00
2015,04,18,15,26,15.00
2015,04,18,15,27,15.00
2015,04,18,15,28,15.00
2015,04,18,15,29,15.00
2015,04,18,15,30,15.00
2015,04,18,15,31,15.10
2015,04,18,15,32,15.10
2015,04,18,15,33,15.10
2015,04,18,15,34,15.10
2015,04,18,15,35,15.20
2015,04,18,15,36,15.20
2015,04,18,15,37,15.20
2015,04,18,15,38,15.20
2015,04,18,15,39,15.30
2015,04,18,15,40,15.30
2015,04,18,15,41,15.30
2015,04,18,15,42,15.30
2015,04,18,15,43,15.30
2015,04,18,15,44,15.30
2015,04,18,15,45,15.30
2015,04,18,15,46,15.30
2015,04,18,15,47,15.30
2015,04,18,15,48,15.30
2015,04,18,15,49,15.30
2015,04,18,15,50,15.40
2015,04,18,15,51,15.40
2015,04,18,15,52,15.40
2015,04,18,15,53,15.50
2015,04,18,15,54,15.50
2015,04,18,15,55,15.50
2015,04,18,15,56,15.60
2015,04,18,15,57,15.60
2015,04,18,15,58,15.60
2015,04,18,15,59,15.60
2015,04,18,16,00,15.60
2015,04,18,16,01,15.60
2015,04,18,16,02,15.60
2015,04,18,16,03,15.60
2015,04,18,16,04,15.60
2015,04,18,16,05,15.60
2015,04,18,16,06,15.60
2015,04,18,16,07,15.60
2015,04,18,16,08,15.90
2015,04,18,16,09,15.90
2015,04,18,16,10,16.00
2015,04,18,16,11,16.00
2015,04,18,16,12,16.10
2015,04,18,16,13,16.20
2015,04,18,16,14,16.20
2015,04,18,16,15,16.20
2015,04,18,16,16,16.30
2015,04,18,16,17,16.30
2015,04,18,16,18,16.30
2015,04,18,16,19,16.30
2015,04,18,16,20,16.30
2015,04,18,16,21,16.30
2015,04,18,16,22,16.30
2015,04,18,16,23,16.30
2015,04,18,16,24,16.30
2015,04,18,16,25,16.20
2015,04,18,16,26,16.20
2015,04,18,16,27,16.20
2015,04,18,16,33,16.10
2015,04,18,16,34,16.10
2015,04,18,16,35,16.10
2015,04,18,16,36,16.10
2015,04,18,16,37,16.10
2015,04,18,16,38,16.10
2015,04,18,16,39,16.10
2015,04,18,16,40,16.00
2015,04,18,16,41,16.00
2015,04,18,16,42,15.90
2015,04,18,16,43,15.90
2015,04,18,16,44,15.90
2015,04,18,16,45,15.90
2015,04,18,16,46,15.90
2015,04,18,16,47,15.90
2015,04,18,16,48,15.80
2015,04,18,16,49,15.80
2015,04,18,16,50,15.80
2015,04,18,16,51,15.90
2015,04,18,16,52,15.90
2015,04,18,16,53,15.90
2015,04,18,16,54,15.90
2015,04,18,16,55,15.90
2015,04,18,16,56,16.00
2015,04,18,16,57,16.00
2015,04,18,16,58,16.10
2015,04,18,16,59,16.10
2015,04,18,17,00,16.20
2015,04,18,17,01,16.20
2015,04,18,17,02,16.30
2015,04,18,17,03,16.40
2015,04,18,17,04,16.40
2015,04,18,17,05,16.50
2015,04,18,17,06,16.60
2015,04,18,17,07,16.70
2015,04,18,17,08,16.70
2015,04,18,17,09,16.80
2015,04,18,17,10,16.90
2015,04,18,17,11,17.00
2015,04,18,17,12,17.00
2015,04,18,17,13,17.10
2015,04,18,17,14,17.10
2015,04,18,17,15,17.10
2015,04,18,17,16,17.10
2015,04,18,17,17,17.10
2015,04,18,17,18,17.00
2015,04,18,17,19,17.00
2015,04,18,17,20,16.90
2015,04,18,17,21,16.90
2015,04,18,17,22,16.80
2015,04,18,17,23,16.80
2015,04,18,17,24,16.70
2015,04,18,17,25,16.70
2015,04,18,17,26,16.60
2015,04,18,17,27,16.50
2015,04,18,17,28,16.50
2015,04,18,17,29,16.40
2015,04,18,17,30,16.40
2015,04,18,17,31,16.40
2015,04,18,17,32,16.40
2015,04,18,17,33,16.40
2015,04,18,17,34,16.40
2015,04,18,17,35,16.40
2015,04,18,17,36,16.50
2015,04,18,17,37,16.50
2015,04,18,17,38,16.50
2015,04,18,17,39,16.50
2015,04,18,17,40,16.50
2015,04,18,17,41,16.50
2015,04,18,17,42,16.50
2015,04,18,17,43,16.40
2015,04,18,17,44,16.40
2015,04,18,17,45,16.30